OneWeb SL0385

operational
NORAD ID: 49311 Int'l Des: 2021-090 Owner: ONEWEBN Country: UK Constellation: oneweb
LEOCIRCULARPOLARONEWEB_TYPE

Über OneWeb SL0385

Beschreibung wird geladen...

Live-Position

3D-Globus wird geladen...

Nächste Überflüge

Höhenverlauf

Altitude vs Time

uPlot chart will show altitude changes over time

Zweizeiliger Elementsatz

1 49311U 21090AJ 25308.74619444 .00000143 00000-0 31936-3 0 9990
2 49311 87.9183 319.2036 0001698 93.1806 266.9521 13.20772483200179
Epoch: 4. Nov. 2025 • Age: 12 hours

Aktueller Status

Höhe 1200.8 km
Geschwindigkeit 7.25 km/s
Subsatellitenpunkt -46.55°S, 176.15°E
Startdatum 14. Okt. 2021
Alter 4 years
Typ internet

Technische Details

Klassifizierung Payload
Masse 148.00 kg
Trockenmasse 140.00 kg
Gesamtmasse 148.00 kg
Länge 1.30 m
Durchmesser 1.00 m
Spannweite 5.00 m
Form Trapezoid+2 pan
Hersteller ONEWUS
Bus-Typ ARROW
Phasenstatus In Orbit
Besitzer/Staat ONEWEBN/UK

Große Konstellationen

Loading constellations...